TimeHST,TemperatureF,Dew PointF,Humidity,Sea Level PressureIn,VisibilityMPH,Wind Direction,Wind SpeedMPH,Gust SpeedMPH,PrecipitationIn,Events,Conditions,WindDirDegrees,DateUTC
12:53 AM,68.0,63.0,84,29.92,10.0,SSE,4.6,-,N/A,,Scattered Clouds,150,2013-05-06 10:53:00
1:53 AM,66.0,63.0,90,29.90,10.0,SW,3.5,-,N/A,,Scattered Clouds,230,2013-05-06 11:53:00
2:53 AM,66.9,62.1,84,29.89,10.0,Calm,Calm,-,N/A,,Scattered Clouds,0,2013-05-06 12:53:00
3:53 AM,66.0,62.1,87,29.88,10.0,Calm,Calm,-,N/A,,Scattered Clouds,0,2013-05-06 13:53:00
4:53 AM,64.9,62.1,90,29.89,10.0,South,3.5,-,N/A,,Partly Cloudy,190,2013-05-06 14:53:00
5:53 AM,66.0,62.1,87,29.91,10.0,SSW,4.6,-,N/A,,Scattered Clouds,200,2013-05-06 15:53:00
6:53 AM,69.1,63.0,81,29.92,10.0,SSW,5.8,-,N/A,,Partly Cloudy,200,2013-05-06 16:53:00
7:53 AM,75.0,64.0,69,29.93,10.0,SSE,3.5,-,N/A,,Partly Cloudy,160,2013-05-06 17:53:00
8:53 AM,80.1,64.9,60,29.94,10.0,Variable,3.5,-,N/A,,Partly Cloudy,0,2013-05-06 18:53:00
9:53 AM,81.0,64.0,56,29.94,10.0,North,4.6,-,N/A,,Partly Cloudy,350,2013-05-06 19:53:00
10:53 AM,82.0,64.9,56,29.94,10.0,NNE,8.1,-,N/A,,Clear,20,2013-05-06 20:53:00
11:53 AM,82.0,68.0,62,29.93,10.0,NNE,10.4,-,N/A,,Partly Cloudy,30,2013-05-06 21:53:00
12:53 PM,82.0,68.0,62,29.90,10.0,North,10.4,-,N/A,,Partly Cloudy,10,2013-05-06 22:53:00
1:53 PM,81.0,66.9,62,29.88,7.0,NNE,12.7,-,N/A,,Clear,20,2013-05-06 23:53:00
2:53 PM,80.1,66.9,64,29.88,5.0,North,12.7,-,N/A,,Haze,10,2013-05-07 00:53:00
3:53 PM,79.0,66.0,64,29.87,5.0,North,11.5,-,N/A,,Haze,360,2013-05-07 01:53:00
4:53 PM,78.1,66.9,68,29.88,10.0,North,11.5,-,N/A,,Mostly Cloudy,350,2013-05-07 02:53:00
5:53 PM,78.1,64.0,62,29.89,10.0,North,9.2,-,N/A,,Mostly Cloudy,350,2013-05-07 03:53:00
6:53 PM,78.1,64.0,62,29.91,10.0,NNW,6.9,-,N/A,,Mostly Cloudy,340,2013-05-07 04:53:00
7:53 PM,77.0,64.9,66,29.93,10.0,NNW,8.1,-,N/A,,Overcast,330,2013-05-07 05:53:00
8:53 PM,75.9,64.9,69,29.96,10.0,WSW,4.6,-,N/A,,Overcast,250,2013-05-07 06:53:00
9:53 PM,73.9,64.9,73,29.98,10.0,SW,3.5,-,N/A,,Overcast,230,2013-05-07 07:53:00
10:53 PM,73.9,64.9,73,29.97,10.0,South,3.5,-,N/A,,Mostly Cloudy,180,2013-05-07 08:53:00
11:53 PM,73.0,64.9,76,29.96,10.0,SSW,4.6,-,N/A,,Overcast,200,2013-05-07 09:53:00